Location: Belvedere Heights
(33.9836°N, 117.3109°W)
Time: 17:39:33
(UTC+00:00)

Meteor 1-14 Rocket - Pass Details

Date: 13 December 2023
Orbit: 834 x 918 km, 81.3° (Epoch: 29 February)

Event Time Altitude Azimuth Distance (km) Brightness Sun altitude
Rises 03:18:57 0° 332° (NNW) 3,393 7.6 -31.9°
Reaches altitude 10° 03:22:04 10° 314° (NW) 2,463 7.0 -32.6°
Maximum altitude 03:25:45 18° 273° (W) 1,946 6.7 -33.3°
Drops below altitude 10° 03:29:28 10° 231° (SW) 2,481 7.2 -34.1°
Sets 03:32:37 0° 213° (SSW) 3,429 7.8 -34.8°
